SCP
-0 0 1 1 0 0 0 0 0 0 0 0 0 0 0 0 0 0 0 0 1 1 1 1 0 0 0 0 0 0 0 0 0 0 0 0 0 0 0 0 0 0 0
1 1 1 1 1 1 0 0 0 0 0 0 0 0 0 0 1 1 1 1 0 1 1 0 0 0 0 0 0 0 0 0 0 0 0 0 0 0 0 0 0 0 0
1 1 1 1 1 1 0 0 0 0 0 0 0 1 1 1 1 1 1 1 1 0 1 0 0 0 0 0 0 0 0 0 0 0 0 0 0 0 0 0 0 0 0
2 1 1 1 1 1 1 1 1 1 1 1 1 0 0 1 1 0 0 0 0 1 1 0 0 0 0 0 0 0 0 0 0 0 0 0 0 0 0 0 0 0 0
3 2 2 1 1 1 1 1 1 1 1 1 0 0 0 1 1 0 0 0 0 1 0 0 0 0 0 0 0 0 0 0 0 0 0 0 0 0 0 0 0 0 0
1 1 0 0 0 0 0 0 0 0 1 1 1 1 0 0 0 0 0 0 0 0 0 0 0 0 0 0 0 0 0 0 0 0 0 0 0 0 0 0 0 0 0
1 1 1 1 0 1 1 1 1 0 0 1 1 1 1 1 0 0 0 0 0 0 0 0 0 0 0 0 0 0 0 0 0 0 0 0 0 0 0 0 0 0 0
1 1 1 1 1 1 1 1 1 1 1 0 0 0 0 0 0 0 0 0 0 0 0 0 0 0 0 0 0 0 0 0 0 0 0 0 0 0 0 0 0 0 0
0 0 1 1 1 1 0 0 0 0 0 0 0 0 0 0 0 0 0 0 0 0 0 0 0 0 0 0 0 0 0 0 0 0 0 0 0 0 0 0 0 0 0
0 0 0 0 0 0 0 0 0 0 0 0 0 0 0 0 0 0 0 0 0 0 0 0 0 0 0 0 0 0 0 0 0 0 0 0 0 0 0 0 0 0 0
0 0 0 0 0 0 0 0 0 0 0 0 0 0 0 0 0 0 0 0 0 0 0 0 0 0 0 0 0 0 0 -0 0 0 0 0 0 0 0 0 0 -0 0
0 0 0 0 0 0 0 0 0 0 0 0 0 0 0 0 0 0 0 0 0 0 0 0 0 0 0 0 0 0 -0 -0 0 0 0 -0 0 0 0 0 0 0 -0
0 0 0 0 0 0 0 0 0 0 0 0 0 0 0 0 0 0 0 0 -0 0 0 -0 0 0 0 0 0 0 -0 0 -0 0 0 0 0 0 0 0 0 -0 0
0 0 0 0 0 0 0 0 0 0 0 0 0 0 0 0 0 0 0 0 -0 0 0 -0 0 0 0 0 0 0 0 -0 -0 -0 0 0 0 0 0 0 0 0 0
0 0 0 0 0 0 0 0 0 0 0 0 0 0 0 0 0 0 0 0 0 0 0 0 0 0 0 0 0 0 -0 -0 -0 0 0 0 0 0 0 0 0 0 -0
0 0 0 0 0 0 0 0 0 0 0 0 0 0 0 0 0 0 0 0 -0 0 0 0 0 0 0 0 0 -0 -0 -0 -0 0 0 0 0 -0 0 0 0 0 0
0 0 0 0 0 0 0 0 0 0 0 0 0 0 0 0 0 0 0 0 0 0 0 0 0 0 0 0 0 0 -0 -0 -0 0 0 0 0 0 -0 0 0 -0 0
0 0 0 0 0 0 0 0 0 0 0 0 0 0 0 0 0 0 0 0 0 0 0 0 0 0 0 0 0 0 0 -0 0 0 0 0 0 0 0 0 0 0 -0
0 0 0 0 0 0 0 0 0 0 -0 0 0 0 0 0 0 0 0 0 0 0 0 0 0 0 0 0 0 0 0 0 0 0 0 0 0 0 0 0 0 0 0
0 0 0 0 0 0 0 0 0 0 0 0 0 0 0 0 0 0 0 0 0 0 0 0 0 0 0 0 0 0 0 0 0 0 0 0 0 0 0 0 0 0 0
0 0 0 0 0 0 0 0 0 0 0 0 0 0 0 0 0 0 0 0 0 0 0 0 0 0 0 0 0 0 0 0 0 0 0 0 0 0 -0 -0 0 0 0
0 0 0 0 0 0 0 0 0 0 0 0 0 0 0 0 0 0 0 0 0 0 0 0 0 0 0 0 0 0 0 0 0 0 0 0 0 0 0 0 0 0 0
0 0 0 0 0 0 0 0 0 0 0 0 0 0 0 0 0 0 0 0 0 0 0 0 0 0 0 0 0 0 0 0 0 0 0 0 0 0 0 0 0 0 0
0 0 0 -0 -0 0 0 0 0 0 0 0 0 0 0 0 0 0 0 0 0 0 0 0 0 0 0 0 0 0 0 0 0 0 0 0 0 0 0 0 0 0 0
0 -0 -0 -0 -0 -0 -0 -0 0 0 0 0 0 0 0 0 0 0 0 0 0 0 0 0 0 0 0 0 0 0 0 0 0 0 0 0 0 0 0 0 0 0 0
-0 -0 -0 -0 -0 -0 -0 -0 -0 0 0 0 0 0 0 0 0 0 0 0 0 0 0 0 0 0 0 0 0 0 0 0 0 0 0 0 0 0 0 0 0 0 0
Wind_Speed_500mb
41 32 32 30 27 24 25 30 37 34 34 41 42 41 36 32 30 32 33 35 39 38 38 39 33 33 18 18 17 12 15 12 8 7 7 20 22 18 11 6 11 6 5
48 37 34 27 21 18 15 13 15 17 16 17 20 25 29 31 33 35 36 37 35 34 43 40 32 33 29 20 11 10 8 6 5 3 5 21 22 20 9 15 12 4 1
55 38 33 29 24 20 18 17 15 16 20 23 27 31 34 41 43 45 43 43 40 33 33 38 31 29 30 19 11 8 9 5 7 11 16 19 22 23 20 13 10 3 6
51 34 33 34 33 30 29 28 28 26 29 27 29 36 40 41 40 45 42 45 39 31 29 34 27 23 25 12 9 7 8 10 7 9 18 21 21 22 14 17 13 14 17
53 49 38 34 29 31 30 27 27 27 31 33 36 38 38 36 38 43 38 42 36 28 23 36 24 21 24 12 10 12 8 15 15 13 15 27 23 28 19 11 9 15 18
37 41 42 38 34 31 35 38 35 37 36 32 39 40 52 46 41 37 36 41 33 28 31 33 30 22 21 11 12 11 9 22 21 21 19 23 21 21 18 13 10 13 5
29 33 37 35 38 34 28 33 37 47 50 47 48 47 46 41 34 32 41 40 34 31 37 31 35 20 18 14 12 13 9 16 25 23 26 23 23 19 13 10 3 7 6
20 23 25 29 25 27 32 33 32 33 34 38 40 37 38 33 30 31 38 33 30 33 34 36 40 18 13 14 15 10 7 12 16 18 21 20 20 30 16 11 6 14 10
19 19 18 16 13 12 16 17 19 21 25 31 32 31 34 19 23 32 18 21 22 22 31 32 34 15 18 16 14 10 7 9 17 15 10 18 20 21 23 13 5 5 10
6 5 7 4 6 8 11 13 16 21 23 29 22 17 15 13 11 19 30 30 23 20 26 25 25 19 18 14 14 7 6 7 11 9 15 22 22 28 23 15 6 2 6
13 6 4 1 4 5 9 11 11 10 16 22 22 9 9 10 6 13 20 14 13 21 24 24 29 28 17 12 13 9 7 7 16 19 21 24 25 20 12 7 7 7 10
20 16 9 3 3 7 12 9 6 10 14 16 17 21 8 7 4 3 11 10 14 21 16 8 14 21 15 15 21 18 12 17 20 25 26 24 17 13 3 5 8 2 13
10 7 4 5 8 17 17 12 13 16 16 17 15 16 19 18 10 12 16 21 24 21 15 24 28 21 25 23 28 21 18 22 19 14 12 11 4 3 4 7 15 11 17
13 17 17 14 9 14 20 26 21 24 24 21 15 11 9 10 15 23 28 33 37 17 11 26 25 27 29 30 34 31 26 23 19 13 17 13 7 7 7 23 21 20 17
20 13 12 8 14 14 15 14 24 31 26 23 21 21 19 18 18 24 26 25 26 19 10 18 28 33 35 39 42 37 33 33 26 23 26 20 10 14 27 27 17 16 11
18 7 13 9 10 11 5 13 27 27 29 21 19 13 12 21 24 27 28 24 20 21 19 23 33 38 36 38 45 45 40 36 32 24 24 19 12 22 24 24 22 16 9
18 6 8 7 3 6 12 17 23 24 29 25 17 16 17 20 18 26 26 25 21 17 21 19 33 44 45 41 46 45 41 39 34 36 32 24 16 22 20 31 31 24 18
4 7 10 12 13 7 7 11 20 29 34 33 23 20 15 18 20 22 26 21 21 19 15 22 26 32 47 47 43 44 44 42 44 40 37 32 21 24 26 27 38 27 30
2 6 6 7 5 6 9 15 24 31 39 42 31 25 18 14 17 16 19 15 17 20 20 21 27 28 30 40 45 47 42 42 50 45 43 38 26 32 30 24 35 28 31
6 8 3 3 11 15 20 25 31 37 40 36 27 31 31 22 14 11 16 21 16 15 19 20 20 28 30 29 41 50 46 49 43 49 49 46 35 38 35 34 28 38 32
11 7 11 17 20 21 24 28 24 22 25 27 26 29 29 29 27 22 20 19 25 24 22 25 23 26 26 28 38 40 51 56 50 53 54 55 45 46 40 42 36 34 36
14 16 15 13 16 20 25 28 28 26 25 29 32 33 31 27 26 28 26 26 26 28 26 29 29 29 29 31 25 40 50 51 52 62 60 58 52 45 49 40 39 36 37
8 5 12 19 24 26 28 29 27 26 27 30 32 33 32 30 28 29 29 29 32 31 34 35 32 31 32 32 34 30 37 45 57 57 62 64 58 50 60 54 47 36 39
15 25 30 31 33 33 31 29 28 26 26 25 26 28 30 32 32 31 29 31 33 34 38 38 37 38 37 38 35 36 33 34 42 48 60 62 59 52 59 52 49 43 43
23 34 41 47 46 41 36 31 29 28 29 32 29 26 25 25 28 29 28 28 29 31 34 42 44 44 43 46 45 42 37 34 39 46 51 52 54 54 57 55 56 51 53
29 35 42 48 50 53 51 40 33 32 33 32 32 28 25 23 21 20 21 22 24 27 31 37 40 41 46 50 50 48 41 35 32 35 42 48 53 56 58 59 56 51 52
Wind_Direction_500mb
231 231 222 225 235 237 233 235 238 251 260 257 261 268 271 275 278 283 280 274 274 281 285 293 289 315 307 299 279 243 282 301 278 194 256 190 179 172 167 174 156 131 66
227 226 226 217 220 236 243 243 243 253 262 270 275 279 282 288 290 287 290 286 286 276 270 283 290 299 291 321 280 272 242 276 323 65 147 165 158 148 174 179 161 167 180
222 222 223 222 229 236 244 247 249 265 269 272 280 286 292 287 287 290 288 284 278 274 271 272 280 295 305 314 294 288 233 273 70 68 110 148 155 149 154 171 199 212 225
214 210 211 217 225 228 242 245 244 251 256 258 263 268 278 284 296 299 299 289 281 265 270 277 281 292 304 285 276 264 223 208 192 104 89 143 150 152 162 189 220 246 254
193 192 196 203 217 243 247 253 253 259 263 264 271 282 286 291 299 305 294 291 290 277 275 282 288 278 305 263 283 276 200 207 221 170 126 149 164 163 182 228 276 296 282
173 179 195 209 220 228 236 249 256 261 281 282 283 286 300 294 298 295 295 292 288 280 262 279 282 271 285 245 256 263 228 219 199 190 157 161 187 179 189 232 260 283 317
193 195 209 222 235 235 237 246 259 274 290 291 287 289 292 292 290 290 288 286 283 272 269 270 271 265 293 216 222 253 226 192 204 204 184 184 195 197 179 181 166 280 304
194 207 216 228 245 258 268 281 285 292 300 304 303 298 299 287 297 298 293 280 274 269 265 262 265 235 248 209 210 219 187 174 185 199 204 210 197 198 198 183 228 295 281
218 218 215 221 241 270 289 289 300 306 314 315 314 307 305 304 310 314 319 308 293 279 270 265 261 248 217 205 211 185 182 162 165 178 180 187 185 202 203 186 263 327 314
141 169 170 197 236 269 292 304 315 327 336 336 334 326 319 313 304 334 335 320 305 293 280 274 245 211 190 205 212 189 186 152 138 172 159 158 159 158 170 184 132 347 341
192 170 197 276 269 327 315 314 324 327 340 339 353 353 326 339 353 356 353 13 1 310 284 279 205 189 178 219 217 196 177 143 119 122 130 136 145 168 175 189 235 289 345
177 182 188 182 324 357 348 341 358 321 325 336 1 9 346 299 297 296 324 335 339 341 307 177 166 187 201 236 210 192 172 135 139 126 112 123 139 166 141 318 189 100 7
178 182 159 106 10 12 11 355 336 341 355 5 13 25 30 23 10 320 331 327 326 336 263 249 248 218 222 225 209 195 182 154 137 129 136 142 127 183 290 181 155 92 31
106 92 83 57 32 21 356 354 350 350 350 356 2 354 354 312 309 311 319 315 315 313 280 230 219 222 227 218 205 204 181 167 135 151 203 216 239 237 199 144 128 97 52
105 91 100 53 16 7 8 360 347 348 344 357 1 358 342 332 326 323 325 330 317 318 283 232 225 213 208 208 208 207 185 175 171 205 221 229 247 177 154 135 136 108 75
137 129 116 58 81 22 2 349 331 341 342 358 3 353 334 326 320 318 319 326 324 302 278 237 230 227 212 213 212 205 193 193 184 204 222 233 240 175 158 157 166 176 141
135 132 215 225 177 345 325 339 330 324 331 324 342 339 332 309 306 297 309 318 320 294 282 268 236 235 228 219 219 215 208 206 197 206 226 233 208 172 170 180 177 190 186
93 215 254 264 240 304 356 330 308 316 325 332 334 329 328 329 317 315 309 320 334 323 290 267 267 243 238 238 235 224 220 211 207 207 220 231 224 188 196 186 182 187 194
313 293 321 18 71 287 282 289 294 304 311 319 315 318 322 323 320 315 307 310 330 329 316 283 267 267 261 257 247 239 229 221 213 208 218 220 220 203 208 202 184 188 201
89 76 76 186 236 269 281 290 299 306 312 319 329 319 319 323 301 289 290 300 312 300 296 293 287 264 268 266 255 241 226 215 211 212 220 228 223 208 198 202 189 194 203
154 191 240 260 280 297 306 305 307 310 323 325 324 318 317 323 318 309 293 286 287 287 281 276 277 265 259 264 253 247 231 222 221 224 223 228 223 218 199 199 205 204 209
239 258 283 308 329 338 335 329 324 326 320 320 318 316 319 320 318 309 300 288 281 278 277 276 268 255 258 253 251 247 245 232 227 217 226 230 223 208 200 207 207 208 210
242 317 4 8 6 6 359 354 350 344 337 328 323 320 319 318 314 305 296 289 285 279 270 268 268 262 241 224 245 253 249 236 232 226 221 226 225 210 205 210 207 210 208
70 55 44 33 26 18 9 3 358 349 339 330 327 324 319 316 313 312 306 300 294 281 273 270 262 259 248 235 235 245 252 233 228 226 224 225 229 221 215 215 214 206 211
67 52 46 42 36 25 16 9 6 3 355 343 336 332 324 318 311 309 310 305 299 297 291 279 270 259 252 240 233 233 238 244 226 221 219 221 222 222 222 214 210 209 211
54 49 45 41 37 31 24 17 11 4 0 351 345 341 338 336 333 329 323 322 318 306 302 291 279 268 255 246 230 228 226 233 230 218 214 211 211 215 218 212 208 214 210
Wind_Speed_850mb
41 32 32 30 27 24 25 30 37 34 34 41 42 41 36 32 30 32 33 35 39 38 38 39 33 33 18 18 17 12 15 12 8 7 7 20 22 18 11 6 11 6 5
48 37 34 27 21 18 15 13 15 17 16 17 20 25 29 31 33 35 36 37 35 34 43 40 32 33 29 20 11 10 8 6 5 3 5 21 22 20 9 15 12 4 1
55 38 33 29 24 20 18 17 15 16 20 23 27 31 34 41 43 45 43 43 40 33 33 38 31 29 30 19 11 8 9 5 7 11 16 19 22 23 20 13 10 3 6
51 34 33 34 33 30 29 28 28 26 29 27 29 36 40 41 40 45 42 45 39 31 29 34 27 23 25 12 9 7 8 10 7 9 18 21 21 22 14 17 13 14 17
53 49 38 34 29 31 30 27 27 27 31 33 36 38 38 36 38 43 38 42 36 28 23 36 24 21 24 12 10 12 8 15 15 13 15 27 23 28 19 11 9 15 18
37 41 42 38 34 31 35 38 35 37 36 32 39 40 52 46 41 37 36 41 33 28 31 33 30 22 21 11 12 11 9 22 21 21 19 23 21 21 18 13 10 13 5
29 33 37 35 38 34 28 33 37 47 50 47 48 47 46 41 34 32 41 40 34 31 37 31 35 20 18 14 12 13 9 16 25 23 26 23 23 19 13 10 3 7 6
20 23 25 29 25 27 32 33 32 33 34 38 40 37 38 33 30 31 38 33 30 33 34 36 40 18 13 14 15 10 7 12 16 18 21 20 20 30 16 11 6 14 10
19 19 18 16 13 12 16 17 19 21 25 31 32 31 34 19 23 32 18 21 22 22 31 32 34 15 18 16 14 10 7 9 17 15 10 18 20 21 23 13 5 5 10
6 5 7 4 6 8 11 13 16 21 23 29 22 17 15 13 11 19 30 30 23 20 26 25 25 19 18 14 14 7 6 7 11 9 15 22 22 28 23 15 6 2 6
13 6 4 1 4 5 9 11 11 10 16 22 22 9 9 10 6 13 20 14 13 21 24 24 29 28 17 12 13 9 7 7 16 19 21 24 25 20 12 7 7 7 10
20 16 9 3 3 7 12 9 6 10 14 16 17 21 8 7 4 3 11 10 14 21 16 8 14 21 15 15 21 18 12 17 20 25 26 24 17 13 3 5 8 2 13
10 7 4 5 8 17 17 12 13 16 16 17 15 16 19 18 10 12 16 21 24 21 15 24 28 21 25 23 28 21 18 22 19 14 12 11 4 3 4 7 15 11 17
13 17 17 14 9 14 20 26 21 24 24 21 15 11 9 10 15 23 28 33 37 17 11 26 25 27 29 30 34 31 26 23 19 13 17 13 7 7 7 23 21 20 17
20 13 12 8 14 14 15 14 24 31 26 23 21 21 19 18 18 24 26 25 26 19 10 18 28 33 35 39 42 37 33 33 26 23 26 20 10 14 27 27 17 16 11
18 7 13 9 10 11 5 13 27 27 29 21 19 13 12 21 24 27 28 24 20 21 19 23 33 38 36 38 45 45 40 36 32 24 24 19 12 22 24 24 22 16 9
18 6 8 7 3 6 12 17 23 24 29 25 17 16 17 20 18 26 26 25 21 17 21 19 33 44 45 41 46 45 41 39 34 36 32 24 16 22 20 31 31 24 18
4 7 10 12 13 7 7 11 20 29 34 33 23 20 15 18 20 22 26 21 21 19 15 22 26 32 47 47 43 44 44 42 44 40 37 32 21 24 26 27 38 27 30
2 6 6 7 5 6 9 15 24 31 39 42 31 25 18 14 17 16 19 15 17 20 20 21 27 28 30 40 45 47 42 42 50 45 43 38 26 32 30 24 35 28 31
6 8 3 3 11 15 20 25 31 37 40 36 27 31 31 22 14 11 16 21 16 15 19 20 20 28 30 29 41 50 46 49 43 49 49 46 35 38 35 34 28 38 32
11 7 11 17 20 21 24 28 24 22 25 27 26 29 29 29 27 22 20 19 25 24 22 25 23 26 26 28 38 40 51 56 50 53 54 55 45 46 40 42 36 34 36
14 16 15 13 16 20 25 28 28 26 25 29 32 33 31 27 26 28 26 26 26 28 26 29 29 29 29 31 25 40 50 51 52 62 60 58 52 45 49 40 39 36 37
8 5 12 19 24 26 28 29 27 26 27 30 32 33 32 30 28 29 29 29 32 31 34 35 32 31 32 32 34 30 37 45 57 57 62 64 58 50 60 54 47 36 39
15 25 30 31 33 33 31 29 28 26 26 25 26 28 30 32 32 31 29 31 33 34 38 38 37 38 37 38 35 36 33 34 42 48 60 62 59 52 59 52 49 43 43
23 34 41 47 46 41 36 31 29 28 29 32 29 26 25 25 28 29 28 28 29 31 34 42 44 44 43 46 45 42 37 34 39 46 51 52 54 54 57 55 56 51 53
29 35 42 48 50 53 51 40 33 32 33 32 32 28 25 23 21 20 21 22 24 27 31 37 40 41 46 50 50 48 41 35 32 35 42 48 53 56 58 59 56 51 52
Wind_Direction_850mb
231 231 222 225 235 237 233 235 238 251 260 257 261 268 271 275 278 283 280 274 274 281 285 293 289 315 307 299 279 243 282 301 278 194 256 190 179 172 167 174 156 131 66
227 226 226 217 220 236 243 243 243 253 262 270 275 279 282 288 290 287 290 286 286 276 270 283 290 299 291 321 280 272 242 276 323 65 147 165 158 148 174 179 161 167 180
222 222 223 222 229 236 244 247 249 265 269 272 280 286 292 287 287 290 288 284 278 274 271 272 280 295 305 314 294 288 233 273 70 68 110 148 155 149 154 171 199 212 225
214 210 211 217 225 228 242 245 244 251 256 258 263 268 278 284 296 299 299 289 281 265 270 277 281 292 304 285 276 264 223 208 192 104 89 143 150 152 162 189 220 246 254
193 192 196 203 217 243 247 253 253 259 263 264 271 282 286 291 299 305 294 291 290 277 275 282 288 278 305 263 283 276 200 207 221 170 126 149 164 163 182 228 276 296 282
173 179 195 209 220 228 236 249 256 261 281 282 283 286 300 294 298 295 295 292 288 280 262 279 282 271 285 245 256 263 228 219 199 190 157 161 187 179 189 232 260 283 317
193 195 209 222 235 235 237 246 259 274 290 291 287 289 292 292 290 290 288 286 283 272 269 270 271 265 293 216 222 253 226 192 204 204 184 184 195 197 179 181 166 280 304
194 207 216 228 245 258 268 281 285 292 300 304 303 298 299 287 297 298 293 280 274 269 265 262 265 235 248 209 210 219 187 174 185 199 204 210 197 198 198 183 228 295 281
218 218 215 221 241 270 289 289 300 306 314 315 314 307 305 304 310 314 319 308 293 279 270 265 261 248 217 205 211 185 182 162 165 178 180 187 185 202 203 186 263 327 314
141 169 170 197 236 269 292 304 315 327 336 336 334 326 319 313 304 334 335 320 305 293 280 274 245 211 190 205 212 189 186 152 138 172 159 158 159 158 170 184 132 347 341
192 170 197 276 269 327 315 314 324 327 340 339 353 353 326 339 353 356 353 13 1 310 284 279 205 189 178 219 217 196 177 143 119 122 130 136 145 168 175 189 235 289 345
177 182 188 182 324 357 348 341 358 321 325 336 1 9 346 299 297 296 324 335 339 341 307 177 166 187 201 236 210 192 172 135 139 126 112 123 139 166 141 318 189 100 7
178 182 159 106 10 12 11 355 336 341 355 5 13 25 30 23 10 320 331 327 326 336 263 249 248 218 222 225 209 195 182 154 137 129 136 142 127 183 290 181 155 92 31
106 92 83 57 32 21 356 354 350 350 350 356 2 354 354 312 309 311 319 315 315 313 280 230 219 222 227 218 205 204 181 167 135 151 203 216 239 237 199 144 128 97 52
105 91 100 53 16 7 8 360 347 348 344 357 1 358 342 332 326 323 325 330 317 318 283 232 225 213 208 208 208 207 185 175 171 205 221 229 247 177 154 135 136 108 75
137 129 116 58 81 22 2 349 331 341 342 358 3 353 334 326 320 318 319 326 324 302 278 237 230 227 212 213 212 205 193 193 184 204 222 233 240 175 158 157 166 176 141
135 132 215 225 177 345 325 339 330 324 331 324 342 339 332 309 306 297 309 318 320 294 282 268 236 235 228 219 219 215 208 206 197 206 226 233 208 172 170 180 177 190 186
93 215 254 264 240 304 356 330 308 316 325 332 334 329 328 329 317 315 309 320 334 323 290 267 267 243 238 238 235 224 220 211 207 207 220 231 224 188 196 186 182 187 194
313 293 321 18 71 287 282 289 294 304 311 319 315 318 322 323 320 315 307 310 330 329 316 283 267 267 261 257 247 239 229 221 213 208 218 220 220 203 208 202 184 188 201
89 76 76 186 236 269 281 290 299 306 312 319 329 319 319 323 301 289 290 300 312 300 296 293 287 264 268 266 255 241 226 215 211 212 220 228 223 208 198 202 189 194 203
154 191 240 260 280 297 306 305 307 310 323 325 324 318 317 323 318 309 293 286 287 287 281 276 277 265 259 264 253 247 231 222 221 224 223 228 223 218 199 199 205 204 209
239 258 283 308 329 338 335 329 324 326 320 320 318 316 319 320 318 309 300 288 281 278 277 276 268 255 258 253 251 247 245 232 227 217 226 230 223 208 200 207 207 208 210
242 317 4 8 6 6 359 354 350 344 337 328 323 320 319 318 314 305 296 289 285 279 270 268 268 262 241 224 245 253 249 236 232 226 221 226 225 210 205 210 207 210 208
70 55 44 33 26 18 9 3 358 349 339 330 327 324 319 316 313 312 306 300 294 281 273 270 262 259 248 235 235 245 252 233 228 226 224 225 229 221 215 215 214 206 211
67 52 46 42 36 25 16 9 6 3 355 343 336 332 324 318 311 309 310 305 299 297 291 279 270 259 252 240 233 233 238 244 226 221 219 221 222 222 222 214 210 209 211
54 49 45 41 37 31 24 17 11 4 0 351 345 341 338 336 333 329 323 322 318 306 302 291 279 268 255 246 230 228 226 233 230 218 214 211 211 215 218 212 208 214 210